Погода в Садовом

Россия / Саратовская область     51°02′17″N   45°51′34″E
темп.,
°C
ветер,
м/с
пор.,
м/с
влажн.,
%
обл.,
%
осадки,
мм/ч
давл.,
гПа
погр.,
м
31 июля, сб
сб3101:00+23зюз366237 0.0 1008110
04:00+21зюз357186 0.0 100876
07:00+22зюз4107698 0.7 1008319
10:00+27зюз6851100 0.8 1009889
13:00+30з684479 0.0 10091593
16:00+31з893384 0.0 10091686
19:00+28сз465286 0.2 1010470
22:00+24зсз226499 0.2 101121
1 августа, вс
вс101:00+23зсз226945 0.0 101215
04:00+23юв116722 0.0 101211
07:00+24ссз00654 0.0 101345
10:00+29в11474 0.0 1013812
13:00+32вюв23354 0.0 10132413
16:00+24всв356793 0.8 1014122
19:00+24з71160100 0.6 1014197
22:00+25с22467 0.6 101311
2 августа, пн
пн201:00+22ссв336282 0.0 101430
04:00+23ссв226171 0.0 101323
07:00+23всв336091 0.1 101360
10:00+29в33404 0.1 1013433
13:00+34юв24220 0.0 10123031
16:00+36ююв34205 0.0 10113247
19:00+29с47365 0.1 1011116
22:00+26всв01335 0.1 101111
3 августа, вт
вт301:00+26ююв333654 0.0 101146
04:00+25ююз33365 0.0 101022
07:00+26ююз35345 0.0 101083
10:00+33ююз57215 0.0 1010685
13:00+37ю791432 0.0 10094074
16:00+37юз691384 0.0 10084213
19:00+34юз47175 0.0 1007230
22:00+24с51056100 0.0 1009170
4 августа, ср
ср401:00+22ссз486095 0.0 1010213
04:00+23зсз2258100 0.1 101023
07:00+21с3477100 0.6 101188
10:00+25ссз4558100 0.6 1012754
13:00+27ссз5447100 0.0 10121327
16:00+29с4440100 0.0 10121887
19:00+28ссз563810 0.0 10121281
22:00+22ссз47500 0.0 1014122